This demonstration page uses our WeatherBlox Daily Observations layout. Learn more.

Hourly Observations for April 5, 2015

Temp ( °F °C ) Dew Point ( °F °C ) Humidity (%) Winds ( mph kmh ) Pressure ( in mb ) Visibility ( mi km ) Precip ( " mm )
12:15 am 00:15 Clear 48 8.7 18 -7.7 31 31 S 16 26 29.94 1014 10 16.0934 0 0
12:35 am 00:35 Clear 47 8.1 19 -7.2 33 33 S 14 22 29.97 1015 10 16.0934 0 0
12:55 am 00:55 Clear 46 7.6 19 -7 35 35 S 13 20 29.97 1015 10 16.0934 0 0
1:15 am 01:15 Clear 45 7.1 19 -7 36 36 S 12 19 29.97 1015 10 16.0934 0 0
1:35 am 01:35 Clear 45 7 20 -6.8 37 37 S 12 19 29.94 1014 10 16.0934 0 0
1:55 am 01:55 Clear 45 7.3 19 -7 36 36 S 15 24 29.94 1014 10 16.0934 0 0
2:15 am 02:15 Clear 45 7.1 20 -6.7 37 37 S 12 19 29.94 1014 10 16.0934 0 0
2:35 am 02:35 Clear 44 6.5 21 -6.2 40 40 S 12 19 29.94 1014 10 16.0934 0 0
2:55 am 02:55 Clear 44 6.5 21 -6.1 40 40 S 13 20 29.91 1013 10 16.0934 0 0
3:15 am 03:15 Clear 43 6.1 21 -5.9 42 42 S 12 19 29.91 1013 10 16.0934 0 0
3:35 am 03:35 Clear 43 6 22 -5.7 43 43 S 12 19 29.88 1012 10 16.0934 0 0
3:55 am 03:55 Clear 42 5.7 22 -5.5 45 45 S 12 19 29.88 1012 10 16.0934 0 0
4:15 am 04:15 Clear 43 5.9 22 -5.5 44 44 S 13 20 29.88 1012 10 16.0934 0 0
4:35 am 04:35 Clear 43 6 22 -5.4 44 44 S 12 19 29.88 1012 10 16.0934 0 0
4:55 am 04:55 Clear 42 5.6 23 -5.2 46 46 S 9 15 29.85 1011 10 16.0934 0 0
5:15 am 05:15 Clear 42 5.4 23 -5 47 47 S 9 15 29.85 1011 10 16.0934 0 0
5:35 am 05:35 Clear 38 3.5 23 -5.1 54 54 SSE 5 7 29.88 1012 10 16.0934 0 0
5:55 am 05:55 Clear 37 2.5 23 -5.1 58 58 SE 7 11 29.88 1012 10 16.0934 0 0
6:15 am 06:15 Clear 38 3.6 24 -4.7 55 55 S 9 15 29.88 1012 10 16.0934 0 0
6:35 am 06:35 Clear 37 3 23 -4.9 57 57 S 7 11 29.88 1012 10 16.0934 0 0
6:55 am 06:55 Clear 39 3.7 24 -4.4 56 56 S 9 15 29.88 1012 10 16.0934 0 0
7:15 am 07:15 Sunny 40 4.2 25 -4.1 55 55 S 8 13 29.88 1012 10 16.0934 0 0
7:35 am 07:35 Sunny 37 2.8 24 -4.5 59 59 S 8 13 29.88 1012 10 16.0934 0 0
7:55 am 07:55 Sunny 38 3.6 25 -4 58 58 S 10 17 29.88 1012 10 16.0934 0 0
8:15 am 08:15 Sunny 40 4.5 26 -3.6 56 56 S 8 13 29.85 1011 10 16.0934 0 0
8:35 am 08:35 Sunny 43 6.1 26 -3.2 52 52 S 9 15 29.85 1011 10 16.0934 0 0
8:55 am 08:55 Sunny 45 7.4 27 -2.8 49 49 S 7 11 29.85 1011 10 16.0934 0 0
9:15 am 09:15 Sunny 48 9.1 27 -2.8 43 43 S 10 17 29.83 1010 10 16.0934 0 0
9:35 am 09:35 Sunny 50 10.1 27 -2.9 40 40 S 10 17 29.83 1010 10 16.0934 0 0
9:55 am 09:55 Sunny 51 10.8 27 -2.9 38 38 S 13 20 29.8 1009 10 16.0934 0 0
10:15 am 10:15 Sunny 53 11.5 27 -3 36 36 S 13 20 29.8 1009 10 16.0934 0 0
10:35 am 10:35 Sunny 54 12.1 27 -2.6 36 36 S 9 15 29.8 1009 10 16.0934 0 0
10:55 am 10:55 Sunny 55 12.5 28 -2.5 35 35 S 9 15 29.77 1008 10 16.0934 0 0
11:15 am 11:15 Sunny 54 12.4 27 -2.8 35 35 S 10 17 29.77 1008 10 16.0934 0 0
11:35 am 11:35 Sunny 55 12.8 28 -2.5 35 35 S 9 15 29.8 1009 10 16.0934 0 0
11:55 am 11:55 Sunny 56 13.2 28 -2.3 34 34 S 8 13 29.77 1008 10 16.0934 0 0
12:15 pm 12:15 Sunny 58 14.4 28 -2 32 32 SSE 10 17 29.74 1007 10 16.0934 0 0
12:35 pm 12:35 Sunny 59 15 28 -2 31 31 SSE 12 19 29.74 1007 10 16.0934 0 0
12:55 pm 12:55 Sunny 61 16 29 -1.6 30 30 S 14 22 29.74 1007 10 16.0934 0 0
1:15 pm 13:15 Sunny 63 17.4 30 -1.1 29 29 SSE 9 15 29.74 1007 10 16.0934 0 0
1:35 pm 13:35 Sunny 64 17.6 30 -1.1 28 28 SSE 15 24 29.71 1006 10 16.0934 0 0
1:55 pm 13:55 Sunny 63 17.2 30 -1.2 29 29 S 15 24 29.74 1007 10 16.0934 0 0
2:15 pm 14:15 Sunny 64 17.5 30 -1 29 29 S 18 30 29.71 1006 10 16.0934 0 0
2:35 pm 14:35 Sunny 64 17.9 30 -0.9 28 28 S 15 24 29.68 1005 10 16.0934 0 0
2:55 pm 14:55 Sunny 65 18.5 31 -0.8 27 27 SSE 17 28 29.68 1005 10 16.0934 0 0
3:15 pm 15:15 Sunny 66 19 31 -0.5 27 27 SSE 16 26 29.65 1004 10 16.0934 0 0
3:35 pm 15:35 Sunny 67 19.7 31 -0.4 26 26 S 12 19 29.65 1004 10 16.0934 0 0
3:55 pm 15:55 Sunny 68 20.1 31 -0.4 25 25 S 14 22 29.65 1004 10 16.0934 0 0
4:15 pm 16:15 Sunny 69 20.5 32 -0.1 25 25 S 14 22 29.59 1002 10 16.0934 0 0
4:35 pm 16:35 Sunny 70 21 32 0 25 25 SSE 12 19 29.59 1002 10 16.0934 0 0
4:55 pm 16:55 Sunny 69 20.8 32 0 25 25 SSE 14 22 29.59 1002 10 16.0934 0 0
5:15 pm 17:15 Sunny 70 21.2 32 0 24 24 S 13 20 29.59 1002 10 16.0934 0 0
5:35 pm 17:35 Sunny 71 21.6 32 0.2 24 24 S 12 19 29.59 1002 10 16.0934 0 0
5:55 pm 17:55 Sunny 71 21.5 32 0 24 24 S 12 19 29.59 1002 10 16.0934 0 0
6:15 pm 18:15 Sunny 71 21.5 32 0 24 24 S 9 15 29.59 1002 10 16.0934 0 0
6:35 pm 18:35 Sunny 71 21.7 32 0.1 24 24 S 12 19 29.59 1002 10 16.0934 0 0
6:55 pm 18:55 Sunny 71 21.5 32 0.1 24 24 S 8 13 29.59 1002 10 16.0934 0 0
7:15 pm 19:15 Sunny 70 21.3 32 0 24 24 S 9 15 29.59 1002 10 16.0934 0 0
7:35 pm 19:35 Sunny 68 20 33 0.4 27 27 S 7 11 29.62 1003 10 16.0934 0 0
7:55 pm 19:55 Sunny 65 18.3 32 0.1 29 29 SSE 6 9 29.62 1003 10 16.0934 0 0
8:15 pm 20:15 Clear 61 16 32 0 34 34 SE 6 9 29.65 1004 10 16.0934 0 0
8:35 pm 20:35 Clear 54 12.3 32 0 43 43 SE 6 9 29.68 1005 10 16.0934 0 0
8:55 pm 20:55 Clear 55 12.6 31 -0.4 41 41 SE 6 9 29.65 1004 10 16.0934 0 0
9:15 pm 21:15 Clear 48 8.8 31 -0.3 53 53 ESE 8 13 29.71 1006 10 16.0934 0 0
9:35 pm 21:35 Clear 51 10.7 33 0.6 50 50 ESE 10 17 29.68 1005 10 16.0934 0 0
9:55 pm 21:55 Clear 53 11.6 36 2.2 53 53 SE 12 19 29.68 1005 10 16.0934 0 0
10:15 pm 22:15 Clear 54 12.3 41 5 61 61 SE 14 22 29.71 1006 10 16.0934 0 0
10:35 pm 22:35 Clear 55 13 45 7.4 69 69 SE 17 28 29.71 1006 10 16.0934 0 0
10:55 pm 22:55 Clear 54 12.3 46 7.9 75 75 SSE 20 31 29.71 1006 10 16.0934 0 0
11:15 pm 23:15 Clear 53 11.5 46 7.9 79 79 SSE 18 30 29.71 1006 10 16.0934 0 0
11:35 pm 23:35 Clear 52 11 46 8 82 82 SSE 16 26 29.71 1006 10 16.0934 0 0
11:55 pm 23:55 Clear 50 10.2 46 8 86 86 SSE 15 24 29.71 1006 10 16.0934 0 0

Powered by AerisWeather